GPS BIIF-6 (PRN 06)

Last updated on Wed Jun 24 2026 00:03:27 GMT+0000 (Coordinated Universal Time)

1 39741U 14026A 26172.44904358 -.00000095 00000+0 00000+0 0 9995 2 39741 56.4961 331.3514 0038142 326.5023 33.2518 2.00560703 88625
UTC large
Height (km)
Speed (km/s)
/
Latitude / Longitude
Inclination (degrees)
Orbital Period (minutes)
Azimuth
Elevation
Range (km)
Doppler Factor

Next 0 passes for location: London (51.5072 / 0.1276)

No passes found over London.
GPS BIIF-6 (PRN 06)